Tracking 28052 objects as of 23-Sep-2023
HD Live streaming from Space Station
objects crossing your sky now

OPS 6431

Track OPS 6431 now!
10-day predictions
OPS 6431 is classified as:


NORAD ID: 8818
Int'l Code: 1976-038A
Perigee: 590.8 km
Apogee: 1,279.6 km
Inclination: 63.3 °
Period: 103.6 minutes
Semi major axis: 7306 km
RCS: Unknown
Launch date: April 30, 1976
Source: United States (US)
Launch site: AIR FORCE WESTERN TEST RANGE (AFWTR)
Your satellite tracking list
Your tracking list is empty




NASA's NSSDC Master Catalog

Two Line Element Set (TLE):
1 08818U 76038A   23206.93800639 0.00000320  00000-0  10402-3 0    08
2 08818  63.3361 147.4101 0471401 167.2672 192.7328 13.90156508    05
Source of the keplerian elements: McCants